Weather History for KLWT - June, 2012

Change the Weather History Date:

Saturday, June 23, 2012

  Actual Average Record
Temperature  
Mean Temperature 66 °F 60 °F  
Max Temperature 78 °F 73 °F 97 °F (1941)
Min Temperature 53 °F 47 °F 32 °F (1905)
Degree Days  
Heating Degree Days 0 6  
Month to date heating degree days 188 191  
Since 1 June heating degree days 188 191  
Since 1 July heating degree days 7451 8165  
Cooling Degree Days 1 1  
Month to date cooling degree days 5 9  
Year to date cooling degree days 5 11  
Since 1 June cooling degree days 5 9  
Growing Degree Days 16 (Base 50)    
Moisture  
Dew Point 54 °F    
Average Humidity 67    
Maximum Humidity 83    
Minimum Humidity 50    
Precipitation  
Precipitation 0.00 in 0.09 in 1.60 in (1907)
Month to date precipitation 2.70 2.49  
Year to date precipitation 10.69 8.75  
Snow  
Snow 0.00 in - - ()
Snow Depth 0.00 in    
Sea Level Pressure  
Sea Level Pressure 29.76 in    
Wind  
Wind Speed 17 mph (ESE)    
Max Wind Speed 28 mph    
Max Gust Speed 36 mph    
Visibility 10 miles    
Events      
T = Trace of Precipitation, MM = Missing Value Source: NWS Daily Summary

Daily Weather History Graph

Daily Weather History Graph

Search for Another Location

Airport or City:

Trip Planner

Search our weather history database for the weather conditions in past years. The results will help you decide how hot, cold, wet, or windy it might be!

Date:

Astronomy

Jun. 23, 2012 Rise Set
Actual Time 5:23 AM MDT 9:17 PM MDT
Civil Twilight 4:43 AM MDT 9:57 PM MDT
Nautical Twilight 3:48 AM MDT 10:51 PM MDT
Astronomical Twilight 2:25 AM MDT 12:14 AM MDT
Moon 9:45 AM MDT 11:28 PM MDT
Length of Visible Light 17h 13m
Length of Day
15h 53m
Waxing Crescent, 16% of the Moon is Illuminated
Jun 23
Waxing Crescent
Jun 26
First Quarter
Jul 3
Full
Jul 10
Last Quarter
Jul 18
New

Hourly Weather History & Observations

Time (MDT) Temp. Dew Point Humidity Pressure Visibility Wind Dir Wind Speed Gust Speed Precip Events Conditions
12:54 AM 60.1 °F 50.0 °F 69% 29.73 in 10.0 mi ESE 16.1 mph - N/A   Clear
1:54 AM 57.0 °F 48.9 °F 74% 29.74 in 10.0 mi ESE 12.7 mph - N/A   Clear
2:54 AM 57.0 °F 48.9 °F 74% 29.73 in 10.0 mi ESE 12.7 mph - N/A   Clear
3:54 AM 55.9 °F 48.9 °F 77% 29.74 in 10.0 mi ESE 11.5 mph - N/A   Clear
4:54 AM 55.9 °F 48.9 °F 77% 29.73 in 10.0 mi ESE 10.4 mph - N/A   Clear
5:54 AM 54.0 °F 48.9 °F 83% 29.74 in 10.0 mi ESE 8.1 mph - N/A   Clear
6:54 AM 57.0 °F 51.1 °F 81% 29.74 in 10.0 mi ESE 9.2 mph - N/A   Clear
7:54 AM 59.0 °F 51.1 °F 75% 29.75 in 10.0 mi ESE 15.0 mph - N/A   Clear
8:54 AM 62.1 °F 53.1 °F 72% 29.77 in 10.0 mi East 13.8 mph - N/A   Clear
9:54 AM 64.9 °F 54.0 °F 68% 29.77 in 10.0 mi East 10.4 mph - N/A   Clear
10:54 AM 66.9 °F 54.0 °F 63% 29.77 in 10.0 mi East 18.4 mph 26.5 mph N/A   Clear
11:54 AM 70.0 °F 55.0 °F 59% 29.75 in 10.0 mi East 24.2 mph 31.1 mph N/A   Clear
1:54 PM 73.9 °F 57.0 °F 55% 29.74 in 10.0 mi ESE 24.2 mph 31.1 mph N/A   Clear
2:54 PM 73.9 °F 57.0 °F 55% 29.75 in 10.0 mi ESE 21.9 mph 34.5 mph N/A   Clear
3:54 PM 75.9 °F 57.0 °F 52% 29.75 in 10.0 mi ESE 21.9 mph 29.9 mph N/A   Clear
4:54 PM 77.0 °F 57.0 °F 50% 29.75 in 10.0 mi East 23.0 mph 31.1 mph N/A   Clear
5:54 PM 75.9 °F 57.0 °F 52% 29.75 in 10.0 mi ESE 20.7 mph 29.9 mph N/A   Clear
6:54 PM 75.0 °F 55.9 °F 51% 29.75 in 10.0 mi East 20.7 mph 33.4 mph N/A   Clear
7:54 PM 73.0 °F 57.0 °F 57% 29.76 in 10.0 mi East 20.7 mph 27.6 mph N/A   Clear
8:54 PM 70.0 °F 55.9 °F 61% 29.76 in 10.0 mi ESE 16.1 mph 25.3 mph N/A   Clear
9:54 PM 66.9 °F 57.0 °F 70% 29.79 in 10.0 mi ESE 16.1 mph - N/A   Clear
10:54 PM 64.9 °F 55.9 °F 73% 29.81 in 10.0 mi ESE 17.3 mph - N/A   Clear
11:54 PM 63.0 °F 55.9 °F 78% 29.82 in 10.0 mi East 16.1 mph - N/A   Clear